Regional Weather Roundup
Issued by NWS

Home | Current Version | Previous Version | Graphics & Text | Print | Product List | Glossary On
Versions: 1 2 3 4 5 6 7 8 9 10 11 12 13 14 15 16 17 18 19 20 21 22 23 24 25 26 27 28 29 30 31 32 33 34 35 36 37 38 39 40 41 42 43 44 45 46 47 48 49 50
000
ASUS43 KLMK 270302
RWRKY
KENTUCKY REGIONAL WEATHER ROUNDUP
NATIONAL WEATHER SERVICE LOUISVILLE KY
1000 PM EST SUN FEB 26 2017

NOTE "FAIR" INDICATES FEW OR NO CLOUDS BELOW 12,000 FEET
WITH NO SIGNIFICANT WEATHER AND/OR OBSTRUCTIONS TO VISIBILITY.

KYZ001>023-026-027-061>063-070>075-270400-
WESTERN AND SOUTH CENTRAL KENTUCKY

CITY           SKY/WX    TMP DP  RH WIND       PRES   REMARKS
PADUCAH        CLOUDY    47  27  45 W7        30.14R
HENDERSON      CLOUDY    46  21  36 SE3       30.15R
OWENSBORO      CLOUDY    47  21  35 CALM      30.16R
HOPKINSVILLE   FAIR      48  22  37 E6        30.14R
BOWLING GREEN  MOCLDY    46  23  40 CALM      30.17S
GLASGOW        NOT AVBL
$$

KYZ024-025-028>034-038-045-046-053-270400-
NORTH CENTRAL KENTUCKY

CITY           SKY/WX    TMP DP  RH WIND       PRES   REMARKS
LOUISVILLE/SDF MOCLDY    44  16  32 SE5       30.17R
LOUISVILLE/LOU FAIR      45  18  34 SE3       30.17S
FORT KNOX      MOCLDY    44  20  39 E3        30.15R
$$

KYZ035>037-039>044-047>052-055>060-089>105-270400-
NORTHEAST KENTUCKY

CITY           SKY/WX    TMP DP  RH WIND       PRES   REMARKS
LEXINGTON      FAIR      42  17  36 SE6       30.18S
COVINGTON      CLOUDY    40  20  44 S7        30.15F
FRANKFORT      FAIR      39  20  46 CALM      30.17S
$$

KYZ054-064>069-076>088-106>120-270400-
SOUTHEAST KENTUCKY

CITY           SKY/WX    TMP DP  RH WIND       PRES   REMARKS
JACKSON        CLOUDY    43  14  31 SE5       30.20F
LONDON         FAIR      37  20  50 CALM      30.20F
SOMERSET       FAIR      37  19  48 CALM      30.22R
MIDDLESBORO    FAIR      34  27  75 CALM      30.24S
MONTICELLO     FAIR      37  26  64 NE8       30.21R WCI  31
$$





USA.gov is the U.S. government's official web portal to all federal, state and local government web resources and services.